Sunday, April 22, 2018, 9:35 PM EDT
Back to Local

KIZG, Fryeburg Eastern Slopes Rgnl

Location: Fryeburg, ME, United States Lat: 43.983
Local Time: 9:35 PM EDT ( 1:35 GMT) Lon: -70.95
Time Zone: US/Eastern Elev: 452 ft

Show me the last for .
Show Decoded

2018-04-22 20:54 METAR KIZG 230054Z AUTO 26003KT 10SM CLR 03/M07 A3036 RMK AO2 SLP285 T00281067 =
2018-04-22 19:54 METAR KIZG 222354Z AUTO 33005KT 10SM CLR 09/M09 A3033 RMK AO2 SLP275 T00941094
                 10150 20094 53014 =
2018-04-22 18:54 METAR KIZG 222254Z AUTO 35008KT 10SM CLR 12/M11 A3031 RMK AO2 SLP267 T01171106 =
2018-04-22 17:54 METAR KIZG 222154Z AUTO 36011KT 10SM CLR 13/M11 A3030 RMK AO2 SLP265 T01331111 =
2018-04-22 16:54 METAR KIZG 222054Z AUTO 36010KT 10SM CLR 14/M10 A3029 RMK AO2 SLP261 T01441100
                 55002 =
2018-04-22 15:54 METAR KIZG 221954Z AUTO 03011G15KT 360V080 10SM CLR 15/M10 A3029 RMK AO2 SLP260
                 T01501100 =
2018-04-22 14:54 METAR KIZG 221854Z AUTO 34009G15KT 310V010 10SM CLR 15/M11 A3029 RMK AO2 SLP262
                 T01501111 =
2018-04-22 13:54 METAR KIZG 221754Z AUTO VRB05KT 10SM CLR 14/M10 A3029 RMK AO2 SLP263 T01441100
                 10150 20039 58006 =
2018-04-22 12:54 METAR KIZG 221654Z AUTO 01007G18KT 350V050 10SM CLR 13/M10 A3030 RMK AO2 SLP265
                 T01331100 =
2018-04-22 11:54 METAR KIZG 221554Z AUTO 34008KT 300V010 10SM CLR 13/M11 A3031 RMK AO2 SLP269
                 T01281106 =
2018-04-22 10:54 METAR KIZG 221454Z AUTO VRB04KT 10SM CLR 11/M07 A3031 RMK AO2 SLP269 T01111067
                 58003 =
2018-04-22 10:49 METAR KIZG 221449Z AUTO VRB03KT 2SM HZ CLR 11/M06 A3031 RMK AO2 =
2018-04-22 09:54 METAR KIZG 221354Z AUTO 11006KT 10SM CLR 09/M06 A3032 RMK AO2 SLP274 T00891061 =
2018-04-22 08:54 METAR KIZG 221254Z AUTO 08003KT 10SM CLR 07/M06 A3032 RMK AO2 SLP272 T00721061 =
2018-04-22 07:54 METAR KIZG 221154Z AUTO 00000KT 10SM CLR 04/M02 A3032 RMK AO2 SLP271 T00391017
                 10039 21044 51010 =
2018-04-22 06:54 METAR KIZG 221054Z AUTO 29003KT 10SM CLR M01/M03 A3032 RMK AO2 SLP272 T10111028
                 =
2018-04-22 05:54 METAR KIZG 220954Z AUTO 00000KT 10SM CLR M03/M04 A3030 RMK AO2 SLP265 T10331044
                 =
2018-04-22 04:54 METAR KIZG 220854Z AUTO 25003KT 10SM CLR M04/M04 A3029 RMK AO2 SLP262 T10441044
                 51006 =
2018-04-22 03:54 METAR KIZG 220754Z AUTO 00000KT 10SM CLR M03/M04 A3029 RMK AO2 SLP260 T10281044
                 =
2018-04-22 02:54 METAR KIZG 220654Z AUTO 00000KT 10SM CLR M02/M03 A3028 RMK AO2 SLP258 T10221033
                 =
2018-04-22 01:54 METAR KIZG 220554Z AUTO 00000KT 10SM CLR M01/M04 A3027 RMK AO2 SLP255 T10061039
                 10078 21011 53000 =
2018-04-22 00:54 METAR KIZG 220454Z AUTO 17005KT 10SM CLR M01/M04 A3027 RMK AO2 SLP255 T10061044
                 401331028 =
2018-04-21 23:54 METAR KIZG 220354Z AUTO 18004KT 10SM CLR 03/M04 A3027 RMK AO2 SLP253 T00281044 =
2018-04-21 22:54 METAR KIZG 220254Z AUTO 23003KT 10SM CLR 01/M03 A3027 RMK AO2 SLP255 T00061033
                 50008 =
2018-04-21 21:54 METAR KIZG 220154Z AUTO 25004KT 10SM FEW075 01/M02 A3028 RMK AO2 SLP257
                 T00111022 =

Support USWX by starting your Amazon purchase here.